Language: 


Des rapports , des résumés tant et plus, au choix de chacun....


Données statistiques de la station
Quotidien Rapport Janvier 26, 2017 Unités:  Métrique    Anglais   les deux
« Précédent Jour
Suivant Jour »
Quotidien Hebdomadaire Mensuel Annuel Actuel
  Haut: Bas: Moyen:
Température: 2.4 °C -3.6 °C -1.1 °C
Pt de rosée: -2.6 °C -7.1 °C -4.9 °C
Humidité: 88 % 62 % 76 %
Vitesse du vent: 27.0 km/h 0.0 km/h 9.7 km/h
Rafales: 36.4 km/h - -
Vent:- - SSE
Pression: 1026.0 hPa 1016.8 hPa -
Précipitation: 0.0 mm    
Historical Graphs
 
 
Données statistiques pour Janvier 26, 2017
Heure Température Point de rosée Pression Vent Vitesse du vent Refales Humidité Pluie (taux horaire)
00:03 -0.9 °C -2.6 °C 1024.9 hPa South 6.1 km/h 13.7 km/h 88 % 0.0 mm
00:08 -0.9 °C -2.6 °C 1026.0 hPa SSE 7.9 km/h 16.9 km/h 88 % 0.0 mm
00:13 -1.0 °C -2.7 °C 1026.0 hPa SSE 9.0 km/h 16.9 km/h 88 % 0.0 mm
00:18 -1.0 °C -2.7 °C 1026.0 hPa SSE 14.0 km/h 14.0 km/h 88 % 0.0 mm
00:23 -1.0 °C -2.7 °C 1024.9 hPa SSE 5.8 km/h 16.9 km/h 88 % 0.0 mm
00:28 -1.0 °C -2.7 °C 1024.9 hPa SSE 10.8 km/h 16.9 km/h 88 % 0.0 mm
00:33 -1.0 °C -2.7 °C 1024.9 hPa SSE 13.0 km/h 15.8 km/h 88 % 0.0 mm
00:38 -1.0 °C -2.7 °C 1024.9 hPa SSW 6.9 km/h 15.8 km/h 88 % 0.0 mm
00:43 -1.1 °C -2.8 °C 1024.9 hPa South 9.0 km/h 15.8 km/h 88 % 0.0 mm
00:48 -1.2 °C -2.9 °C 1024.9 hPa SSE 9.0 km/h 14.0 km/h 88 % 0.0 mm
00:53 -1.3 °C -3.0 °C 1024.9 hPa SE 9.3 km/h 14.3 km/h 88 % 0.0 mm
00:58 -1.4 °C -3.3 °C 1024.9 hPa SSE 9.3 km/h 15.8 km/h 87 % 0.0 mm
01:03 -1.4 °C -3.3 °C 1024.9 hPa South 6.1 km/h 15.8 km/h 87 % 0.0 mm
01:08 -1.4 °C -3.3 °C 1024.9 hPa SSE 8.7 km/h 16.9 km/h 87 % 0.0 mm
01:13 -1.6 °C -3.6 °C 1024.9 hPa SSW 6.4 km/h 16.9 km/h 86 % 0.0 mm
01:18 -1.8 °C -3.8 °C 1024.9 hPa SSE 12.2 km/h 20.1 km/h 86 % 0.0 mm
01:23 -1.9 °C -4.1 °C 1024.9 hPa SSE 6.4 km/h 20.1 km/h 85 % 0.0 mm
01:28 -1.9 °C -4.1 °C 1024.9 hPa SSW 6.1 km/h 16.3 km/h 85 % 0.0 mm
01:33 -1.9 °C -4.1 °C 1024.9 hPa SSW 9.0 km/h 15.1 km/h 85 % 0.0 mm
01:38 -1.9 °C -4.1 °C 1024.9 hPa South 5.8 km/h 16.9 km/h 85 % 0.0 mm
01:43 -1.9 °C -4.1 °C 1024.9 hPa SSE 9.7 km/h 19.8 km/h 85 % 0.0 mm
01:48 -1.9 °C -4.2 °C 1024.9 hPa SSW 16.6 km/h 19.8 km/h 85 % 0.0 mm
01:53 -1.9 °C -4.2 °C 1024.9 hPa South 10.5 km/h 16.6 km/h 85 % 0.0 mm
01:58 -1.9 °C -4.2 °C 1024.9 hPa South 15.4 km/h 16.6 km/h 85 % 0.0 mm
02:03 -1.9 °C -4.2 °C 1024.9 hPa SSE 10.5 km/h 16.3 km/h 85 % 0.0 mm
02:08 -1.9 °C -4.2 °C 1023.9 hPa South 11.6 km/h 17.2 km/h 85 % 0.0 mm
02:13 -1.9 °C -4.3 °C 1023.9 hPa SSE 13.7 km/h 22.4 km/h 84 % 0.0 mm
02:18 -1.9 °C -4.4 °C 1023.9 hPa SSE 10.1 km/h 22.4 km/h 83 % 0.0 mm
02:23 -1.9 °C -4.4 °C 1026.0 hPa SSE 5.0 km/h 14.0 km/h 83 % 0.0 mm
02:24 -1.9 °C -4.4 °C 1026.0 hPa South 6.1 km/h 14.0 km/h 83 % 0.0 mm
02:29 -1.9 °C -4.4 °C 1026.0 hPa South 12.6 km/h 15.4 km/h 83 % 0.0 mm
02:34 -1.9 °C -4.4 °C 1026.0 hPa South 6.4 km/h 15.4 km/h 83 % 0.0 mm
02:39 -1.9 °C -4.4 °C 1024.9 hPa SSE 10.1 km/h 17.7 km/h 83 % 0.0 mm
02:44 -1.9 °C -4.6 °C 1024.9 hPa SSE 5.0 km/h 17.7 km/h 82 % 0.0 mm
02:49 -1.9 °C -4.6 °C 1024.9 hPa South 15.4 km/h 16.9 km/h 82 % 0.0 mm
02:54 -1.9 °C -4.6 °C 1024.9 hPa SSE 14.0 km/h 19.8 km/h 82 % 0.0 mm
02:59 -1.9 °C -4.6 °C 1024.9 hPa SSE 11.9 km/h 19.8 km/h 82 % 0.0 mm
03:04 -1.9 °C -4.6 °C 1024.9 hPa South 12.6 km/h 21.2 km/h 82 % 0.0 mm
03:09 -1.9 °C -4.8 °C 1023.9 hPa South 12.2 km/h 19.8 km/h 81 % 0.0 mm
03:14 -2.1 °C -4.9 °C 1023.9 hPa SSE 7.9 km/h 19.8 km/h 81 % 0.0 mm
03:19 -2.1 °C -4.9 °C 1023.9 hPa SSE 9.3 km/h 23.3 km/h 81 % 0.0 mm
03:24 -2.2 °C -5.2 °C 1024.9 hPa SSE 13.0 km/h 23.3 km/h 80 % 0.0 mm
03:29 -2.2 °C -5.2 °C 1024.9 hPa SSE 11.9 km/h 21.2 km/h 80 % 0.0 mm
03:34 -2.2 °C -5.2 °C 1024.9 hPa SE 14.0 km/h 19.5 km/h 80 % 0.0 mm
03:39 -2.2 °C -5.0 °C 1023.9 hPa SSE 12.6 km/h 16.9 km/h 81 % 0.0 mm
03:44 -2.2 °C -5.2 °C 1023.9 hPa South 27.0 km/h 27.0 km/h 80 % 0.0 mm
03:49 -2.2 °C -5.2 °C 1023.9 hPa SSE 14.0 km/h 27.0 km/h 80 % 0.0 mm
03:54 -2.3 °C -5.2 °C 1023.9 hPa SE 10.1 km/h 27.0 km/h 80 % 0.0 mm
03:59 -2.3 °C -5.2 °C 1023.9 hPa SSE 19.8 km/h 20.1 km/h 80 % 0.0 mm
04:04 -2.3 °C -5.5 °C 1023.9 hPa SE 16.9 km/h 20.9 km/h 79 % 0.0 mm
04:09 -2.4 °C -5.6 °C 1022.9 hPa SSE 10.1 km/h 20.9 km/h 79 % 0.0 mm
04:14 -2.6 °C -5.7 °C 1022.9 hPa SSE 17.2 km/h 19.5 km/h 79 % 0.0 mm
04:19 -2.6 °C -5.7 °C 1022.9 hPa South 12.2 km/h 23.8 km/h 79 % 0.0 mm
04:24 -2.6 °C -5.7 °C 1022.9 hPa SSE 9.3 km/h 23.8 km/h 79 % 0.0 mm
04:29 -2.7 °C -5.8 °C 1022.9 hPa SSE 8.7 km/h 20.9 km/h 79 % 0.0 mm
04:34 -2.7 °C -5.8 °C 1022.9 hPa South 7.9 km/h 20.9 km/h 79 % 0.0 mm
04:39 -2.7 °C -5.8 °C 1022.9 hPa SSE 8.7 km/h 19.5 km/h 79 % 0.0 mm
04:44 -2.7 °C -5.8 °C 1022.9 hPa SSE 12.2 km/h 19.5 km/h 79 % 0.0 mm
04:49 -2.6 °C -5.7 °C 1022.9 hPa SSE 17.2 km/h 20.6 km/h 79 % 0.0 mm
04:54 -2.6 °C -5.7 °C 1022.9 hPa SSE 10.1 km/h 20.6 km/h 79 % 0.0 mm
04:59 -2.6 °C -5.7 °C 1022.9 hPa South 13.0 km/h 19.8 km/h 79 % 0.0 mm
05:04 -2.7 °C -5.8 °C 1022.9 hPa SSE 12.2 km/h 24.8 km/h 79 % 0.0 mm
05:09 -2.7 °C -5.8 °C 1022.9 hPa South 12.6 km/h 24.8 km/h 79 % 0.0 mm
05:14 -2.7 °C -5.8 °C 1022.9 hPa SSE 14.0 km/h 20.9 km/h 79 % 0.0 mm
05:19 -2.7 °C -5.8 °C 1022.9 hPa South 7.6 km/h 22.7 km/h 79 % 0.0 mm
05:24 -2.7 °C -5.8 °C 1022.9 hPa SSE 10.1 km/h 22.7 km/h 79 % 0.0 mm
05:29 -2.7 °C -5.8 °C 1022.9 hPa SE 15.4 km/h 20.9 km/h 79 % 0.0 mm
05:34 -2.7 °C -6.1 °C 1022.9 hPa SSE 15.8 km/h 23.3 km/h 78 % 0.0 mm
05:39 -2.7 °C -6.1 °C 1022.9 hPa SSE 23.8 km/h 27.7 km/h 78 % 0.0 mm
05:44 -2.7 °C -6.1 °C 1022.9 hPa SSE 8.7 km/h 27.7 km/h 78 % 0.0 mm
05:49 -2.8 °C -6.2 °C 1022.9 hPa SSE 8.7 km/h 23.8 km/h 78 % 0.0 mm
05:54 -2.8 °C -6.2 °C 1022.9 hPa South 13.0 km/h 16.9 km/h 78 % 0.0 mm
05:59 -2.9 °C -6.1 °C 1022.9 hPa South 16.9 km/h 20.1 km/h 79 % 0.0 mm
06:04 -2.9 °C -6.2 °C 1022.9 hPa SSE 17.7 km/h 20.1 km/h 78 % 0.0 mm
06:09 -3.1 °C -6.3 °C 1022.9 hPa South 20.6 km/h 23.3 km/h 78 % 0.0 mm
06:14 -3.1 °C -6.3 °C 1022.9 hPa South 16.9 km/h 23.3 km/h 78 % 0.0 mm
06:19 -3.1 °C -6.4 °C 1022.9 hPa SSW 7.9 km/h 24.8 km/h 78 % 0.0 mm
06:24 -3.2 °C -6.5 °C 1022.9 hPa SSW 20.6 km/h 24.8 km/h 78 % 0.0 mm
06:29 -3.2 °C -6.5 °C 1022.9 hPa SSW 20.6 km/h 25.9 km/h 78 % 0.0 mm
06:34 -3.2 °C -6.7 °C 1022.9 hPa SSE 9.7 km/h 26.7 km/h 77 % 0.0 mm
06:39 -3.2 °C -6.5 °C 1021.9 hPa South 12.6 km/h 26.7 km/h 78 % 0.0 mm
06:44 -3.2 °C -6.5 °C 1021.9 hPa SSE 25.9 km/h 25.9 km/h 78 % 0.0 mm
06:50 -3.3 °C -6.6 °C 1021.9 hPa SSW 10.5 km/h 25.9 km/h 78 % 0.0 mm
06:54 -3.4 °C -6.7 °C 1022.9 hPa SE 13.7 km/h 25.9 km/h 78 % 0.0 mm
06:59 -3.4 °C -6.7 °C 1022.9 hPa SSE 13.0 km/h 23.3 km/h 78 % 0.0 mm
07:04 -3.4 °C -6.7 °C 1022.9 hPa SE 15.8 km/h 23.8 km/h 78 % 0.0 mm
07:09 -3.6 °C -6.8 °C 1023.9 hPa South 16.9 km/h 23.8 km/h 78 % 0.0 mm
07:14 -3.6 °C -6.8 °C 1023.9 hPa SSE 16.3 km/h 23.8 km/h 78 % 0.0 mm
07:19 -3.6 °C -7.0 °C 1023.9 hPa SSE 16.6 km/h 36.4 km/h 77 % 0.0 mm
07:24 -3.6 °C -7.0 °C 1022.9 hPa SE 12.6 km/h 36.4 km/h 77 % 0.0 mm
07:29 -3.6 °C -7.0 °C 1022.9 hPa SSE 9.0 km/h 24.5 km/h 77 % 0.0 mm
07:34 -3.6 °C -7.0 °C 1022.9 hPa SSE 14.0 km/h 20.9 km/h 77 % 0.0 mm
07:39 -3.4 °C -6.9 °C 1022.9 hPa SSE 26.2 km/h 26.2 km/h 77 % 0.0 mm
07:44 -3.4 °C -6.9 °C 1022.9 hPa SE 16.9 km/h 26.2 km/h 77 % 0.0 mm
07:49 -3.4 °C -7.1 °C 1022.9 hPa SE 16.6 km/h 24.5 km/h 76 % 0.0 mm
07:55 -3.3 °C -6.9 °C 1022.9 hPa SSE 8.7 km/h 25.9 km/h 76 % 0.0 mm
07:59 -3.3 °C -6.9 °C 1022.9 hPa SSE 11.9 km/h 25.9 km/h 76 % 0.0 mm
08:04 -3.3 °C -6.8 °C 1022.9 hPa SSE 13.7 km/h 20.6 km/h 77 % 0.0 mm
08:09 -3.2 °C -6.7 °C 1022.9 hPa SSE 13.0 km/h 19.5 km/h 77 % 0.0 mm
08:14 -3.2 °C -6.9 °C 1022.9 hPa SSE 14.0 km/h 19.8 km/h 76 % 0.0 mm
08:19 -3.2 °C -6.7 °C 1022.9 hPa SSE 15.4 km/h 19.8 km/h 77 % 0.0 mm
08:25 -3.2 °C -6.7 °C 1022.9 hPa South 7.9 km/h 21.9 km/h 77 % 0.0 mm
08:29 -3.2 °C -6.7 °C 1022.9 hPa South 7.9 km/h 21.9 km/h 77 % 0.0 mm
08:35 -3.1 °C -6.6 °C 1022.9 hPa SSE 9.7 km/h 20.9 km/h 77 % 0.0 mm
08:40 -3.1 °C -6.8 °C 1022.9 hPa South 9.0 km/h 20.9 km/h 76 % 0.0 mm
08:45 -3.2 °C -6.9 °C 1022.9 hPa South 8.7 km/h 16.9 km/h 76 % 0.0 mm
08:50 -3.3 °C -6.9 °C 1022.9 hPa SSE 12.6 km/h 16.6 km/h 76 % 0.0 mm
08:55 -3.3 °C -6.9 °C 1022.9 hPa SSE 9.0 km/h 15.4 km/h 76 % 0.0 mm
09:00 -3.3 °C -6.9 °C 1022.9 hPa SE 6.1 km/h 16.6 km/h 76 % 0.0 mm
09:05 -3.3 °C -6.8 °C 1022.9 hPa ESE 7.9 km/h 16.6 km/h 77 % 0.0 mm
09:10 -3.3 °C -6.8 °C 1022.9 hPa South 5.5 km/h 12.6 km/h 77 % 0.0 mm
09:15 -3.3 °C -6.8 °C 1022.9 hPa SSE 10.1 km/h 10.5 km/h 77 % 0.0 mm
09:20 -3.3 °C -6.8 °C 1022.9 hPa SSE 19.1 km/h 19.1 km/h 77 % 0.0 mm
09:25 -3.2 °C -6.7 °C 1022.9 hPa SSE 15.4 km/h 19.1 km/h 77 % 0.0 mm
09:30 -3.2 °C -6.7 °C 1022.9 hPa South 9.0 km/h 17.2 km/h 77 % 0.0 mm
09:35 -3.1 °C -6.6 °C 1022.9 hPa South 12.6 km/h 21.2 km/h 77 % 0.0 mm
09:40 -2.9 °C -6.4 °C 1022.9 hPa SSE 10.5 km/h 21.2 km/h 77 % 0.0 mm
09:45 -2.8 °C -6.3 °C 1022.9 hPa SSE 12.6 km/h 17.7 km/h 77 % 0.0 mm
09:50 -2.7 °C -6.2 °C 1022.9 hPa SSE 9.3 km/h 17.7 km/h 77 % 0.0 mm
09:55 -2.7 °C -6.3 °C 1022.9 hPa South 6.4 km/h 17.7 km/h 76 % 0.0 mm
10:00 -2.6 °C -6.2 °C 1022.9 hPa SSE 17.7 km/h 17.7 km/h 76 % 0.0 mm
10:05 -2.4 °C -6.3 °C 1022.9 hPa SSE 11.6 km/h 23.3 km/h 75 % 0.0 mm
10:10 -2.4 °C -6.3 °C 1022.9 hPa SSE 10.5 km/h 23.3 km/h 75 % 0.0 mm
10:15 -2.3 °C -5.9 °C 1022.9 hPa SSE 5.0 km/h 20.6 km/h 76 % 0.0 mm
10:20 -2.2 °C -5.8 °C 1022.9 hPa SSW 5.5 km/h 19.1 km/h 76 % 0.0 mm
10:21 -2.2 °C -5.8 °C 1022.9 hPa South 9.0 km/h 19.1 km/h 76 % 0.0 mm
10:26 -2.1 °C -5.9 °C 1022.9 hPa South 9.7 km/h 19.1 km/h 75 % 0.0 mm
10:31 -1.9 °C -5.8 °C 1022.9 hPa SSE 11.9 km/h 22.4 km/h 75 % 0.0 mm
10:36 -1.9 °C -5.9 °C 1022.9 hPa SSW 4.3 km/h 22.4 km/h 74 % 0.0 mm
10:41 -1.7 °C -5.7 °C 1022.9 hPa East 17.2 km/h 20.9 km/h 74 % 0.0 mm
10:46 -1.6 °C -5.6 °C 1022.9 hPa SSE 16.3 km/h 17.2 km/h 74 % 0.0 mm
10:51 -1.4 °C -5.7 °C 1022.9 hPa South 9.7 km/h 17.2 km/h 73 % 0.0 mm
10:56 -1.4 °C -5.6 °C 1022.9 hPa SSE 10.1 km/h 17.2 km/h 73 % 0.0 mm
11:01 -1.3 °C -5.5 °C 1022.9 hPa East 9.0 km/h 16.9 km/h 73 % 0.0 mm
11:06 -1.3 °C -5.7 °C 1022.9 hPa SSE 13.7 km/h 15.8 km/h 72 % 0.0 mm
11:11 -1.0 °C -5.2 °C 1021.9 hPa SSW 10.1 km/h 15.8 km/h 73 % 0.0 mm
11:16 -1.0 °C -5.2 °C 1021.9 hPa SSE 9.3 km/h 20.9 km/h 73 % 0.0 mm
11:21 -1.0 °C -5.6 °C 1021.9 hPa SSE 12.6 km/h 20.9 km/h 71 % 0.0 mm
11:26 -1.0 °C -5.8 °C 1021.9 hPa South 14.0 km/h 23.8 km/h 70 % 0.0 mm
11:31 -0.8 °C -5.6 °C 1021.9 hPa SSE 10.1 km/h 23.8 km/h 70 % 0.0 mm
11:36 -0.6 °C -5.2 °C 1021.9 hPa SSE 12.2 km/h 20.1 km/h 71 % 0.0 mm
11:41 -0.5 °C -5.1 °C 1021.9 hPa South 6.1 km/h 17.2 km/h 71 % 0.0 mm
11:46 -0.3 °C -5.1 °C 1021.9 hPa SSW 9.0 km/h 17.2 km/h 70 % 0.0 mm
11:51 -0.4 °C -5.4 °C 1021.9 hPa South 15.4 km/h 20.6 km/h 69 % 0.0 mm
11:56 -0.3 °C -5.5 °C 1021.9 hPa South 22.4 km/h 22.4 km/h 68 % 0.0 mm
12:01 -0.3 °C -5.5 °C 1021.9 hPa SSE 12.6 km/h 22.4 km/h 68 % 0.0 mm
12:06 -0.3 °C -5.7 °C 1021.9 hPa SE 9.0 km/h 22.4 km/h 67 % 0.0 mm
12:11 -0.1 °C -5.3 °C 1021.9 hPa South 19.8 km/h 22.4 km/h 68 % 0.0 mm
12:16 0.1 °C -5.1 °C 1021.9 hPa SSE 10.1 km/h 21.6 km/h 68 % 0.0 mm
12:21 0.2 °C -5.0 °C 1021.9 hPa SSE 14.0 km/h 21.6 km/h 68 % 0.0 mm
12:26 0.1 °C -5.3 °C 1020.9 hPa South 11.9 km/h 20.9 km/h 67 % 0.0 mm
12:27 0.1 °C -5.3 °C 1020.9 hPa South 12.6 km/h 20.9 km/h 67 % 0.0 mm
12:32 0.2 °C -5.2 °C 1020.9 hPa SSE 20.6 km/h 25.6 km/h 67 % 0.0 mm
12:37 0.4 °C -5.1 °C 1020.9 hPa SSE 12.2 km/h 25.6 km/h 67 % 0.0 mm
12:42 0.6 °C -4.7 °C 1020.9 hPa South 6.4 km/h 20.6 km/h 68 % 0.0 mm
12:47 0.7 °C -4.6 °C 1020.9 hPa South 11.9 km/h 20.6 km/h 68 % 0.0 mm
12:52 0.7 °C -4.9 °C 1020.9 hPa South 9.7 km/h 20.6 km/h 66 % 0.0 mm
12:57 0.8 °C -4.7 °C 1020.9 hPa South 15.1 km/h 18.0 km/h 67 % 0.0 mm
13:02 0.9 °C -4.8 °C 1020.9 hPa South 8.7 km/h 18.0 km/h 66 % 0.0 mm
13:07 0.9 °C -4.8 °C 1020.9 hPa South 16.3 km/h 19.5 km/h 66 % 0.0 mm
13:12 0.9 °C -4.9 °C 1020.9 hPa South 17.2 km/h 20.9 km/h 65 % 0.0 mm
13:17 1.0 °C -4.9 °C 1020.9 hPa SSE 15.4 km/h 20.9 km/h 65 % 0.0 mm
13:22 1.1 °C -4.8 °C 1020.9 hPa South 11.9 km/h 19.5 km/h 65 % 0.0 mm
13:27 1.3 °C -4.4 °C 1020.9 hPa SSE 15.4 km/h 16.6 km/h 66 % 0.0 mm
13:32 1.3 °C -4.6 °C 1020.9 hPa SSE 12.2 km/h 16.6 km/h 65 % 0.0 mm
13:37 1.3 °C -4.8 °C 1020.9 hPa ESE 10.5 km/h 16.9 km/h 64 % 0.0 mm
13:42 1.3 °C -4.8 °C 1020.9 hPa SSE 17.7 km/h 17.7 km/h 64 % 0.0 mm
13:47 1.4 °C -4.5 °C 1020.9 hPa SSE 10.1 km/h 21.2 km/h 65 % 0.0 mm
13:52 1.6 °C -4.3 °C 1020.9 hPa SSE 6.4 km/h 21.2 km/h 65 % 0.0 mm
13:57 1.7 °C -4.2 °C 1020.9 hPa SSE 11.9 km/h 20.6 km/h 65 % 0.0 mm
14:02 1.8 °C -4.1 °C 1020.9 hPa SE 13.0 km/h 13.0 km/h 65 % 0.0 mm
14:07 1.9 °C -4.0 °C 1020.9 hPa SSE 5.0 km/h 13.0 km/h 65 % 0.0 mm
14:12 1.9 °C -4.2 °C 1020.9 hPa SSE 10.1 km/h 16.9 km/h 64 % 0.0 mm
14:17 1.9 °C -4.3 °C 1020.9 hPa SSE 11.9 km/h 16.9 km/h 63 % 0.0 mm
14:22 1.9 °C -4.2 °C 1019.9 hPa SSE 10.1 km/h 15.8 km/h 64 % 0.0 mm
14:27 2.1 °C -4.1 °C 1019.9 hPa SSE 6.4 km/h 14.0 km/h 64 % 0.0 mm
14:32 2.3 °C -3.9 °C 1019.9 hPa South 13.7 km/h 13.7 km/h 64 % 0.0 mm
14:37 2.3 °C -3.9 °C 1019.9 hPa SSE 6.4 km/h 13.7 km/h 64 % 0.0 mm
14:42 2.3 °C -3.8 °C 1019.9 hPa SSE 13.0 km/h 13.7 km/h 64 % 0.0 mm
14:47 2.3 °C -4.1 °C 1019.9 hPa SE 15.4 km/h 15.4 km/h 63 % 0.0 mm
14:52 2.2 °C -4.4 °C 1019.9 hPa SE 11.9 km/h 16.6 km/h 62 % 0.0 mm
14:57 2.3 °C -4.3 °C 1019.9 hPa SE 15.4 km/h 16.6 km/h 62 % 0.0 mm
15:02 2.3 °C -4.3 °C 1019.9 hPa South 11.9 km/h 16.3 km/h 62 % 0.0 mm
15:07 2.3 °C -4.0 °C 1019.9 hPa South 13.0 km/h 15.1 km/h 63 % 0.0 mm
15:12 2.3 °C -4.2 °C 1019.9 hPa SSE 9.3 km/h 17.2 km/h 62 % 0.0 mm
15:17 2.3 °C -4.0 °C 1019.9 hPa South 9.0 km/h 17.2 km/h 63 % 0.0 mm
15:22 2.3 °C -4.0 °C 1018.8 hPa SSE 6.9 km/h 15.8 km/h 63 % 0.0 mm
15:27 2.3 °C -4.2 °C 1018.8 hPa SSE 6.9 km/h 16.6 km/h 62 % 0.0 mm
15:32 2.3 °C -4.0 °C 1018.8 hPa SE 14.0 km/h 16.6 km/h 63 % 0.0 mm
15:33 2.3 °C -4.0 °C 1018.8 hPa SE 13.0 km/h 16.6 km/h 63 % 0.0 mm
15:38 2.3 °C -4.0 °C 1018.8 hPa SSE 12.6 km/h 14.0 km/h 63 % 0.0 mm
15:43 2.3 °C -3.8 °C 1018.8 hPa SSE 4.7 km/h 13.0 km/h 64 % 0.0 mm
15:48 2.4 °C -3.9 °C 1018.8 hPa South 5.8 km/h 17.2 km/h 63 % 0.0 mm
15:53 2.4 °C -3.7 °C 1018.8 hPa SE 11.6 km/h 17.2 km/h 64 % 0.0 mm
15:58 2.3 °C -4.0 °C 1018.8 hPa ESE 11.9 km/h 13.0 km/h 63 % 0.0 mm
16:03 2.3 °C -4.0 °C 1018.8 hPa SSE 10.1 km/h 13.0 km/h 63 % 0.0 mm
16:08 2.3 °C -3.8 °C 1018.2 hPa SSE 5.5 km/h 12.6 km/h 64 % 0.0 mm
16:13 2.3 °C -3.8 °C 1018.2 hPa SSE 6.1 km/h 13.0 km/h 64 % 0.0 mm
16:18 2.3 °C -3.8 °C 1018.2 hPa SSE 6.4 km/h 13.0 km/h 64 % 0.0 mm
16:23 2.3 °C -3.7 °C 1018.8 hPa SSE 9.0 km/h 10.5 km/h 65 % 0.0 mm
16:28 2.1 °C -3.8 °C 1018.8 hPa SSE 9.3 km/h 10.5 km/h 65 % 0.0 mm
16:33 1.9 °C -4.0 °C 1018.8 hPa SSE 10.1 km/h 11.9 km/h 65 % 0.0 mm
16:38 1.9 °C -3.8 °C 1018.2 hPa SSE 5.8 km/h 11.9 km/h 66 % 0.0 mm
16:43 1.8 °C -3.9 °C 1018.2 hPa SSE 6.9 km/h 11.9 km/h 66 % 0.0 mm
16:48 1.7 °C -3.8 °C 1018.2 hPa SSE 10.1 km/h 11.9 km/h 67 % 0.0 mm
16:53 1.6 °C -3.9 °C 1018.8 hPa SSE 9.3 km/h 13.0 km/h 67 % 0.0 mm
16:58 1.4 °C -3.8 °C 1018.8 hPa SSE 6.4 km/h 13.0 km/h 68 % 0.0 mm
17:03 1.3 °C -4.0 °C 1018.8 hPa SE 4.7 km/h 9.3 km/h 68 % 0.0 mm
17:08 1.2 °C -3.9 °C 1018.8 hPa SE 4.3 km/h 9.3 km/h 69 % 0.0 mm
17:13 1.0 °C -4.1 °C 1018.8 hPa ESE 6.1 km/h 9.3 km/h 69 % 0.0 mm
17:18 0.9 °C -4.0 °C 1018.8 hPa SE 5.0 km/h 8.7 km/h 70 % 0.0 mm
17:23 0.8 °C -3.9 °C 1018.8 hPa SSE 5.8 km/h 9.3 km/h 71 % 0.0 mm
17:28 0.7 °C -4.0 °C 1018.8 hPa SE 5.0 km/h 9.3 km/h 71 % 0.0 mm
17:33 0.6 °C -4.1 °C 1018.8 hPa SE 9.0 km/h 9.3 km/h 71 % 0.0 mm
17:35 0.6 °C -3.9 °C 1018.8 hPa South 6.4 km/h 9.7 km/h 72 % 0.0 mm
17:40 0.6 °C -3.9 °C 1018.8 hPa SE 4.0 km/h 9.7 km/h 72 % 0.0 mm
17:45 0.4 °C -4.1 °C 1018.8 hPa ESE 5.8 km/h 8.7 km/h 72 % 0.0 mm
17:50 0.4 °C -4.1 °C 1018.8 hPa SE 5.5 km/h 9.3 km/h 72 % 0.0 mm
17:55 0.3 °C -4.0 °C 1018.2 hPa SSE 6.1 km/h 9.3 km/h 73 % 0.0 mm
18:00 0.3 °C -4.0 °C 1018.2 hPa SE 5.8 km/h 8.7 km/h 73 % 0.0 mm
18:05 0.2 °C -4.1 °C 1018.2 hPa SE 3.2 km/h 7.9 km/h 73 % 0.0 mm
18:10 0.1 °C -4.2 °C 1018.8 hPa Calm   6.4 km/h 73 % 0.0 mm
18:15 0.0 °C -4.1 °C 1018.8 hPa SE 4.0 km/h 7.9 km/h 74 % 0.0 mm
18:20 -0.1 °C -4.2 °C 1018.8 hPa SE 4.7 km/h 7.9 km/h 74 % 0.0 mm
18:25 -0.1 °C -4.2 °C 1018.8 hPa ESE 5.0 km/h 7.9 km/h 74 % 0.0 mm
18:30 -0.2 °C -4.1 °C 1018.8 hPa ESE 5.8 km/h 6.9 km/h 75 % 0.0 mm
18:35 -0.3 °C -4.2 °C 1018.8 hPa ENE 5.0 km/h 7.6 km/h 75 % 0.0 mm
18:40 -0.5 °C -4.4 °C 1018.8 hPa East 4.0 km/h 7.6 km/h 75 % 0.0 mm
18:45 -0.7 °C -4.6 °C 1018.8 hPa Calm   5.8 km/h 75 % 0.0 mm
18:50 -0.9 °C -4.8 °C 1018.8 hPa East 5.0 km/h 6.4 km/h 75 % 0.0 mm
18:55 -1.0 °C -4.7 °C 1018.8 hPa East 5.5 km/h 6.4 km/h 76 % 0.0 mm
19:00 -1.0 °C -4.5 °C 1018.8 hPa East 5.5 km/h 5.5 km/h 77 % 0.0 mm
19:05 -1.0 °C -4.5 °C 1018.8 hPa East 4.0 km/h 5.5 km/h 77 % 0.0 mm
19:10 -1.2 °C -4.7 °C 1018.8 hPa East 4.0 km/h 5.0 km/h 77 % 0.0 mm
19:15 -1.3 °C -4.8 °C 1018.8 hPa Calm   4.7 km/h 77 % 0.0 mm
19:20 -1.4 °C -4.9 °C 1018.8 hPa East 5.5 km/h 5.5 km/h 77 % 0.0 mm
19:25 -1.4 °C -4.8 °C 1018.8 hPa Calm   5.5 km/h 78 % 0.0 mm
19:27 -1.4 °C -4.8 °C 1018.8 hPa Calm   5.5 km/h 78 % 0.0 mm
19:32 -1.6 °C -4.9 °C 1018.8 hPa Calm   5.0 km/h 78 % 0.0 mm
19:37 -1.6 °C -4.7 °C 1018.8 hPa ESE 4.7 km/h 5.8 km/h 79 % 0.0 mm
19:42 -1.4 °C -4.7 °C 1018.8 hPa ESE 6.1 km/h 6.4 km/h 79 % 0.0 mm
19:47 -1.4 °C -4.5 °C 1018.8 hPa East 5.8 km/h 6.4 km/h 80 % 0.0 mm
19:52 -1.4 °C -4.4 °C 1018.8 hPa East 4.7 km/h 6.1 km/h 80 % 0.0 mm
19:57 -1.4 °C -4.5 °C 1018.8 hPa ESE 4.0 km/h 6.1 km/h 80 % 0.0 mm
20:02 -1.6 °C -4.6 °C 1018.8 hPa ESE 4.3 km/h 5.5 km/h 80 % 0.0 mm
20:07 -1.6 °C -4.6 °C 1018.8 hPa ESE 6.1 km/h 6.4 km/h 80 % 0.0 mm
20:12 -1.6 °C -4.6 °C 1018.8 hPa East 5.8 km/h 6.4 km/h 80 % 0.0 mm
20:17 -1.6 °C -4.4 °C 1018.8 hPa ESE 4.3 km/h 7.9 km/h 81 % 0.0 mm
20:22 -1.6 °C -4.4 °C 1018.8 hPa ESE 6.4 km/h 7.9 km/h 81 % 0.0 mm
20:27 -1.6 °C -4.2 °C 1018.8 hPa ESE 5.8 km/h 6.9 km/h 82 % 0.0 mm
20:32 -1.6 °C -4.2 °C 1018.8 hPa ESE 4.3 km/h 6.9 km/h 82 % 0.0 mm
20:37 -1.7 °C -4.3 °C 1018.8 hPa ESE 3.5 km/h 6.9 km/h 82 % 0.0 mm
20:42 -1.7 °C -4.3 °C 1018.8 hPa ESE 3.2 km/h 5.5 km/h 82 % 0.0 mm
20:47 -1.8 °C -4.4 °C 1018.8 hPa ESE 4.7 km/h 5.5 km/h 82 % 0.0 mm
20:52 -1.8 °C -4.4 °C 1018.2 hPa ESE 4.0 km/h 5.0 km/h 82 % 0.0 mm
20:57 -1.9 °C -4.6 °C 1018.2 hPa East 4.3 km/h 5.5 km/h 82 % 0.0 mm
21:02 -1.9 °C -4.6 °C 1018.2 hPa East 3.2 km/h 5.5 km/h 82 % 0.0 mm
21:07 -1.9 °C -4.6 °C 1018.8 hPa Calm   4.7 km/h 82 % 0.0 mm
21:12 -2.1 °C -4.7 °C 1018.8 hPa East 4.3 km/h 5.0 km/h 82 % 0.0 mm
21:17 -2.1 °C -4.6 °C 1018.8 hPa ESE 4.3 km/h 5.0 km/h 83 % 0.0 mm
21:22 -1.9 °C -4.3 °C 1018.2 hPa ESE 5.0 km/h 6.4 km/h 84 % 0.0 mm
21:27 -1.9 °C -4.2 °C 1018.2 hPa SE 6.1 km/h 6.9 km/h 84 % 0.0 mm
21:32 -1.9 °C -4.2 °C 1018.2 hPa ESE 5.8 km/h 6.9 km/h 84 % 0.0 mm
21:37 -1.8 °C -4.1 °C 1018.2 hPa SSE 8.7 km/h 12.2 km/h 84 % 0.0 mm
21:42 -1.6 °C -3.8 °C 1018.2 hPa SE 4.7 km/h 12.2 km/h 85 % 0.0 mm
21:47 -1.4 °C -3.7 °C 1018.2 hPa ESE 6.4 km/h 9.7 km/h 85 % 0.0 mm
21:52 -1.4 °C -3.8 °C 1018.2 hPa SSE 6.4 km/h 8.7 km/h 84 % 0.0 mm
21:57 -1.4 °C -3.7 °C 1018.2 hPa SSE 4.7 km/h 8.7 km/h 84 % 0.0 mm
22:02 -1.4 °C -3.7 °C 1018.2 hPa SSE 5.0 km/h 8.7 km/h 84 % 0.0 mm
22:07 -1.4 °C -3.9 °C 1018.2 hPa SSE 4.3 km/h 8.7 km/h 83 % 0.0 mm
22:12 -1.4 °C -4.0 °C 1018.2 hPa SE 4.3 km/h 6.9 km/h 83 % 0.0 mm
22:17 -1.4 °C -3.9 °C 1018.2 hPa SSE 6.1 km/h 9.3 km/h 83 % 0.0 mm
22:22 -1.4 °C -3.9 °C 1018.2 hPa South 7.9 km/h 9.3 km/h 83 % 0.0 mm
22:27 -1.4 °C -3.9 °C 1018.2 hPa SE 5.5 km/h 10.1 km/h 83 % 0.0 mm
22:32 -1.4 °C -3.9 °C 1018.2 hPa South 6.9 km/h 10.1 km/h 83 % 0.0 mm
22:37 -1.4 °C -4.2 °C 1016.8 hPa SSE 4.7 km/h 8.7 km/h 82 % 0.0 mm
22:42 -1.4 °C -4.2 °C 1016.8 hPa SSE 5.8 km/h 10.5 km/h 82 % 0.0 mm
22:47 -1.4 °C -4.2 °C 1016.8 hPa SSE 7.6 km/h 13.0 km/h 82 % 0.0 mm
22:52 -1.4 °C -4.2 °C 1016.8 hPa SE 6.1 km/h 13.0 km/h 82 % 0.0 mm
22:57 -1.6 °C -4.2 °C 1016.8 hPa SSE 6.9 km/h 10.5 km/h 82 % 0.0 mm
23:02 -1.6 °C -4.2 °C 1016.8 hPa SSE 7.9 km/h 10.8 km/h 82 % 0.0 mm
23:07 -1.7 °C -4.3 °C 1016.8 hPa South 3.2 km/h 10.8 km/h 82 % 0.0 mm
23:12 -1.7 °C -4.3 °C 1016.8 hPa SSE 4.7 km/h 9.0 km/h 82 % 0.0 mm
23:17 -1.8 °C -4.4 °C 1016.8 hPa SSE 7.9 km/h 10.1 km/h 82 % 0.0 mm
23:22 -1.8 °C -4.4 °C 1016.8 hPa SE 6.4 km/h 10.8 km/h 82 % 0.0 mm
23:27 -1.7 °C -4.2 °C 1016.8 hPa ESE 6.9 km/h 12.2 km/h 83 % 0.0 mm
23:32 -1.8 °C -4.4 °C 1016.8 hPa ESE 5.8 km/h 12.2 km/h 82 % 0.0 mm
23:37 -1.8 °C -4.4 °C 1016.8 hPa SE 9.7 km/h 12.2 km/h 82 % 0.0 mm
23:42 -1.8 °C -4.4 °C 1016.8 hPa SE 6.4 km/h 10.5 km/h 82 % 0.0 mm
23:47 -1.9 °C -4.6 °C 1016.8 hPa SSE 5.0 km/h 9.7 km/h 82 % 0.0 mm
23:52 -1.9 °C -4.6 °C 1016.8 hPa SSE 3.5 km/h 11.9 km/h 82 % 0.0 mm
23:57 -1.9 °C -4.6 °C 1016.8 hPa SSE 4.7 km/h 11.9 km/h 82 % 0.0 mm
Le Gheer Warneton
Courtoisie de Weather Underground - 2.25 mb

Mise a jour : 16-12-17 12:12:11
Généré par Cumulus 1.9.4 (1099)